• In United Kingdom
  • List of Countries
  • For 7 days
  • Water Temperature
  • Satellite Maps
  • Weather Map
  • Weather Widgets
  • user-avatar
    Login

    Hourly Weather Rozhnyatov

    Today, 19 February, Monday

    Time Temperature Precipitation Wind Pressure Humidity
    00:00 -4°C° 0.1 mm 1 mps 731 mmHg 100%
    01:00 -6°C° 0.1 mm 1 mps 731 mmHg 100%
    02:00 -7°C° 0 mm 1 mps 731 mmHg 100%
    03:00 -8°C° 0 mm 1 mps 731 mmHg 100%
    04:00 -10°C° 0 mm 2 mps 731 mmHg 100%
    05:00 -10°C° 0 mm 2 mps 730 mmHg 100%
    06:00 -12°C° 0 mm 2 mps 730 mmHg 100%
    07:00 -12°C° 0 mm 2 mps 731 mmHg 99%
    08:00 -12°C° 0 mm 2 mps 731 mmHg 98%
    09:00 -10°C° 0 mm 2 mps 731 mmHg 95%
    10:00 -8°C° 0 mm 1 mps 731 mmHg 91%
    11:00 -6°C° 0 mm 0 mps 731 mmHg 93%
    12:00 -3°C° 0 mm 1 mps 731 mmHg 94%
    13:00 -4°C° 0 mm 2 mps 731 mmHg 93%
    14:00 -5°C° 0 mm 3 mps 731 mmHg 94%
    15:00 -5°C° 0 mm 3 mps 731 mmHg 96%
    16:00 -4°C° 0 mm 2 mps 730 mmHg 98%
    17:00 -5°C° 0 mm 2 mps 730 mmHg 100%
    18:00 -6°C° 0 mm 2 mps 730 mmHg 100%
    19:00 -6°C° 0 mm 2 mps 730 mmHg 100%
    20:00 -7°C° 0 mm 2 mps 730 mmHg 100%
    21:00 -8°C° 0 mm 2 mps 729 mmHg 100%
    22:00 -8°C° 0 mm 2 mps 729 mmHg 100%
    23:00 -9°C° 0 mm 2 mps 729 mmHg 100%

    Tomorrow, 20 February, Tuesday

    Time Temperature Precipitation Wind Pressure Humidity
    00:00 -10°C° 0 mm 2 mps 729 mmHg 100%
    01:00 -9°C° 0 mm 1 mps 728 mmHg 100%
    02:00 -10°C° 0 mm 1 mps 728 mmHg 100%
    03:00 -11°C° 0 mm 1 mps 728 mmHg 100%
    04:00 -12°C° 0 mm 1 mps 727 mmHg 100%
    05:00 -13°C° 0 mm 1 mps 727 mmHg 100%
    06:00 -13°C° 0 mm 1 mps 726 mmHg 100%
    07:00 -14°C° 0 mm 1 mps 726 mmHg 100%
    08:00 -13°C° 0 mm 1 mps 726 mmHg 100%
    09:00 -14°C° 0 mm 2 mps 726 mmHg 100%
    10:00 -12°C° 0 mm 2 mps 727 mmHg 98%
    11:00 -9°C° 0 mm 2 mps 727 mmHg 96%
    12:00 -8°C° 0 mm 3 mps 727 mmHg 97%
    13:00 -7°C° 0 mm 3 mps 727 mmHg 96%
    14:00 -7°C° 0 mm 4 mps 727 mmHg 96%
    15:00 -7°C° 0 mm 4 mps 727 mmHg 98%
    16:00 -7°C° 0 mm 4 mps 727 mmHg 99%
    17:00 -7°C° 0 mm 4 mps 726 mmHg 100%
    18:00 -7°C° 0 mm 4 mps 726 mmHg 100%
    19:00 -7°C° 0 mm 3 mps 726 mmHg 100%
    20:00 -7°C° 0 mm 3 mps 726 mmHg 100%
    21:00 -7°C° 0 mm 3 mps 726 mmHg 100%
    22:00 -7°C° 0 mm 3 mps 726 mmHg 100%
    23:00 -7°C° 0 mm 3 mps 726 mmHg 100%

    Day after tomorrow, 21 February, Wednesday

    Time Temperature Precipitation Wind Pressure Humidity
    00:00 -8°C° 0 mm 3 mps 726 mmHg 100%
    01:00 -8°C° 0 mm 3 mps 726 mmHg 100%
    02:00 -8°C° 0 mm 3 mps 726 mmHg 100%
    03:00 -8°C° 0 mm 3 mps 726 mmHg 100%
    04:00 -8°C° 0 mm 3 mps 726 mmHg 100%
    05:00 -8°C° 0 mm 3 mps 725 mmHg 100%
    06:00 -8°C° 0 mm 3 mps 725 mmHg 100%
    07:00 -8°C° 0 mm 3 mps 725 mmHg 99%
    08:00 -7°C° 0 mm 2 mps 725 mmHg 98%
    09:00 -9°C° 0 mm 3 mps 725 mmHg 100%
    10:00 -7°C° 0 mm 2 mps 725 mmHg 98%
    11:00 -3°C° 0 mm 1 mps 725 mmHg 100%
    12:00 -4°C° 0 mm 2 mps 725 mmHg 100%
    13:00 -1°C° 0 mm 1 mps 725 mmHg 99%
    14:00 0°C° 0 mm 1 mps 725 mmHg 98%
    15:00 0°C° 0 mm 1 mps 725 mmHg 98%
    16:00 0°C° 0 mm 1 mps 725 mmHg 98%
    17:00 0°C° 0 mm 1 mps 725 mmHg 100%
    18:00 -1°C° 0 mm 1 mps 725 mmHg 100%
    19:00 -2°C° 0 mm 1 mps 725 mmHg 100%
    20:00 -2°C° 0 mm 1 mps 725 mmHg 100%
    21:00 -3°C° 0 mm 1 mps 725 mmHg 100%
    22:00 -3°C° 0 mm 1 mps 725 mmHg 100%
    23:00 -6°C° 0 mm 1 mps 725 mmHg 100%

    22 February, Thursday

    Time Temperature Precipitation Wind Pressure Humidity
    00:00 -6°C° 0 mm 1 mps 725 mmHg 100%
    01:00 -7°C° 0 mm 0 mps 725 mmHg 100%
    02:00 -8°C° 0 mm 0 mps 725 mmHg 100%
    03:00 -8°C° 0 mm 0 mps 725 mmHg 100%
    04:00 -8°C° 0 mm 0 mps 724 mmHg 100%
    05:00 -8°C° 0 mm 0 mps 724 mmHg 100%
    06:00 -8°C° 0 mm 0 mps 724 mmHg 100%
    07:00 -8°C° 0 mm 0 mps 725 mmHg 100%
    08:00 -7°C° 0 mm 0 mps 725 mmHg 100%
    09:00 -7°C° 0 mm 1 mps 725 mmHg 100%
    10:00 -6°C° 0 mm 1 mps 725 mmHg 100%
    11:00 -6°C° 0 mm 2 mps 725 mmHg 100%
    12:00 -5°C° 0 mm 2 mps 725 mmHg 100%
    13:00 -5°C° 0 mm 2 mps 725 mmHg 100%
    14:00 -4°C° 0 mm 2 mps 725 mmHg 99%
    15:00 -5°C° 0 mm 2 mps 725 mmHg 99%
    16:00 -5°C° 0 mm 2 mps 725 mmHg 99%
    17:00 -6°C° 0 mm 2 mps 725 mmHg 98%
    18:00 -7°C° 0 mm 2 mps 724 mmHg 100%
    19:00 -7°C° 0 mm 2 mps 725 mmHg 100%
    20:00 -7°C° 0 mm 1 mps 725 mmHg 100%
    21:00 -7°C° 0 mm 1 mps 725 mmHg 100%
    22:00 -7°C° 0 mm 1 mps 724 mmHg 100%
    23:00 -7°C° 0 mm 1 mps 724 mmHg 100%

    23 February, Friday

    Time Temperature Precipitation Wind Pressure Humidity
    00:00 -7°C° 0 mm 1 mps 724 mmHg 100%
    01:00 -7°C° 0 mm 1 mps 724 mmHg 100%
    02:00 -8°C° 0 mm 1 mps 724 mmHg 100%

    24 February, Saturday

    Time Temperature Precipitation Wind Pressure Humidity
    Show more